Back to catalog

THOR ABLESTAR DEB

AliveLEO
NORAD 402·DEBRIS·🇺🇸 United States

Launched Jun 29, 1961 from Cape Canaveral Space Force Station

Loading…

Next Passes (next 24 hours)

TLE

FreshSource: Space-Track

Epoch: Sep 13, 2026, 12:50 UTC

1 00402U 61015EB  26256.53537104  .00006937  00000-0  10445-2 0  9999
2 00402  66.6520 342.8723 0032006 247.1856 112.5883 14.74649956354247

Track THOR ABLESTAR DEB in real time with AllMySat

Download on the App Store